Location: Ponte Samoggia
(44.5667°N, 11.1333°E)
Time: 23:33:35
(UTC+00:00)

Cosmos 2298 Rocket - Pass Details

Date: 26 May 2022
Orbit: 775 x 784 km, 74.0° (Epoch: 26 June)

Event Time Altitude Azimuth Distance (km) Brightness Sun altitude
Exits shadow 00:07:42 58° 216° (SW) 903 4.0 -23.1°
Maximum altitude 00:08:45 81° 291° (WNW) 791 4.0 -23.1°
Drops below altitude 10° 00:14:05 10° 19° (NNE) 2,337 7.6 -22.9°
Sets 00:16:29 0° 21° (NNE) 3,271 8.7 -22.7°
